sat.trackr.live / text

‹ back to catalog

BSAT-4B

NORAD 46112 · 2020-056A

PAYLOAD ACTIVE UNKNOWN

§ Identity

Operator
Country
JPN
Launch date
2020-08-15
Launch site
FRGUI
Launch vehicle
Mass (kg)
RCS (m²)

Purposes: comms

External: N2YO · Heavens-Above · Gunter

§ Orbital elements

Epoch: 2026-09-20T00:20:08.946816Z

Period
1,436.11 min
Inclination
0.0198°
Eccentricity
0.0004174
Mean motion
1.00270819 rev/d
Perigee alt
35,769.3 km
Apogee alt
35,804.5 km
Semi-major
42,165.0 km
B*
0.0000e+0
RAAN
160.0304°
Arg perigee
355.3305°
Mean anomaly
318.4261°
Rev number
2,234

§ Raw data

BSAT-4B1 46112U 20056A   26263.01399244 -.00000354  00000+0  00000+0 0  99992 46112   0.0198 160.0304 0004174 355.3305 318.4261  1.00270819 22342

JSON: /api/v1/satellites/46112 · /tle

For live sub-satellite position, see the globe view (requires WebGL).

§ Visibility from observer

Set your observer location to see the next 7 days of passes ≥ 10°. The values pass through the URL so the page stays shareable.

No JS? Fill the form by hand. The geolocation button needs JavaScript.